Regional Weather Roundup
Issued by NWS

Home | Current Version | Previous Version | Graphics & Text | Print | Product List | Glossary Off
Versions: 1 2 3 4 5 6 7 8 9 10 11 12 13 14 15 16 17 18 19 20 21 22 23 24 25 26 27 28 29 30 31 32 33 34 35 36 37 38 39 40 41 42 43 44 45 46 47 48 49 50

000
ASUS43 KFSD 070502
RWRSD

WEATHER ROUNDUP FOR SOUTH DAKOTA
NATIONAL WEATHER SERVICE SIOUX FALLS SD
1200 AM CDT THU MAY 07 2015

NOTE: "FAIR" INDICATES FEW OR NO CLOUDS BELOW 12,000 FEET WITH NO
SIGNIFICANT WEATHER AND/OR OBSTRUCTIONS TO VISIBILITY.


SDZ001>005-009-010-012>017-070600-
NORTHWEST AND NORTH CENTRAL SOUTH DAKOTA

CITY           SKY/WX    TMP DP  RH WIND       PRES   REMARKS
BUFFALO          N/A     49  45  86 NW23G35   29.69R
FAITH            N/A     53  50  89 NW21G29   29.62S
MOBRIDGE       CLOUDY    60  58  92 NE3       29.59F
$$

SDZ012>016-024>037-041>051-057-063-072>074-070600-
SOUTHWEST AND SOUTH CENTRAL SOUTH DAKOTA

CITY           SKY/WX    TMP DP  RH WIND       PRES   REMARKS
RAPID CTY ARPT LGT RAIN  49  46  90 NW31G39   29.72S
PIERRE         CLOUDY    59  56  89 CALM      29.60F
CUSTER         CLOUDY    44  38  79 N7        29.76S
ELLSWORTH AFB  LGT RAIN  48  46  93 NW26G36   29.72S
PHILIP         LGT RAIN  56  54  93 NW16G28   29.64S
PINE RIDGE     CLOUDY    50  46  86 N13G24    29.71R
WINNER         CLOUDY    57  54  89 SE7       29.61S
$$

SDZ004>011-016>023-039-040-070600-
NORTHEAST SOUTH DAKOTA

CITY           SKY/WX    TMP DP  RH WIND       PRES   REMARKS
ABERDEEN       RAIN      60  57  89 S14       29.65S FOG
WATERTOWN      LGT RAIN  63  59  87 SE18G24   29.67F
BROOKINGS      CLOUDY    63  61  94 SE21G29   29.69F
SISSETON         N/A     60  59  96 S8        29.67F
$$

SDZ017-020-022-023-036>040-048>070-070600-
SOUTHEAST SOUTH DAKOTA

CITY           SKY/WX    TMP DP  RH WIND       PRES   REMARKS
SIOUX FALLS    LGT RAIN  63  59  87 S17G29    29.66F
HURON          LGT RAIN  60  58  92 S5        29.62F
MITCHELL       LGT RAIN  64  62  93 S14       29.62S
YANKTON        CLOUDY    63  57  82 SE14G21   29.64R
$$

ABBREVIATIONS USED IN REMARKS
   TC - TEMPERATURE IN CELSIUS
  WCI - WIND CHILL INDEX
   HX - HEAT INDEX
  VSB - VISIBILITY



USA.gov is the U.S. government's official web portal to all federal, state and local government web resources and services.